QPF
0.04 0.04 0.02 0.00 0.00 0.00 0.00 0.01 0.04 0.04 0.00 0.00 0.00 0.00 0.00 0.00 0.00 0.00 0.00 0.00 0.00 0.00 0.00 0.00 0.00 0.00 0.00 0.00 0.00 0.00 0.00 0.00 0.00 0.00 0.00 0.00 0.00 0.00 0.00 0.00 0.00 0.00 0.00 0.00 0.00
0.04 0.04 0.03 0.01 0.00 0.00 0.00 0.01 0.04 0.04 0.01 0.00 0.00 0.00 0.00 0.00 0.00 0.00 0.00 0.00 0.00 0.00 0.00 0.00 0.00 0.00 0.00 0.00 0.00 0.00 0.00 0.00 0.00 0.00 0.00 0.00 0.00 0.00 0.00 0.00 0.00 0.00 0.00 0.00 0.00
0.04 0.05 0.03 0.02 0.01 0.00 0.01 0.02 0.04 0.03 0.01 0.00 0.00 0.00 0.00 0.00 0.00 0.00 0.00 0.00 0.00 0.00 0.00 0.00 0.00 0.00 0.00 0.00 0.00 0.00 0.00 0.00 0.00 0.00 0.00 0.00 0.00 0.00 0.00 0.00 0.00 0.00 0.00 0.00 0.00
0.04 0.05 0.03 0.02 0.02 0.00 0.03 0.05 0.04 0.03 0.00 0.00 0.00 0.00 0.00 0.00 0.00 0.00 0.00 0.00 0.00 0.00 0.00 0.00 0.00 0.00 0.00 0.00 0.00 0.00 0.00 0.00 0.00 0.00 0.00 0.00 0.00 0.00 0.00 0.00 0.00 0.00 0.00 0.00 0.00
0.03 0.04 0.04 0.01 0.02 0.02 0.01 0.06 0.04 0.02 0.00 0.00 0.00 0.00 0.00 0.00 0.00 0.00 0.00 0.00 0.00 0.00 0.00 0.00 0.00 0.00 0.00 0.00 0.00 0.00 0.00 0.00 0.00 0.00 0.00 0.00 0.00 0.00 0.00 0.00 0.00 0.00 0.00 0.00 0.00
0.03 0.03 0.04 0.02 0.01 0.02 0.04 0.03 0.03 0.01 0.01 0.00 0.00 0.00 0.00 0.00 0.00 0.00 0.00 0.00 0.00 0.00 0.00 0.00 0.00 0.00 0.00 0.00 0.00 0.00 0.00 0.00 0.00 0.00 0.00 0.00 0.00 0.00 0.00 0.00 0.00 0.00 0.00 0.00 0.00
0.03 0.02 0.03 0.04 0.01 0.01 0.02 0.05 0.04 0.01 0.01 0.00 0.00 0.00 0.00 0.00 0.00 0.00 0.00 0.00 0.00 0.00 0.00 0.00 0.00 0.00 0.00 0.00 0.00 0.00 0.00 0.00 0.00 0.00 0.00 0.00 0.00 0.00 0.00 0.00 0.00 0.00 0.00 0.00 0.00
0.00 0.01 0.02 0.04 0.02 0.02 0.02 0.03 0.05 0.02 0.01 0.01 0.00 0.00 0.00 0.00 0.00 0.00 0.00 0.00 0.00 0.00 0.00 0.00 0.00 0.00 0.00 0.00 0.00 0.00 0.00 0.00 0.00 0.00 0.00 0.00 0.00 0.00 0.00 0.00 0.00 0.00 0.00 0.00 0.00
0.00 0.00 0.01 0.04 0.02 0.02 0.06 0.05 0.04 0.02 0.03 0.00 0.00 0.00 0.00 0.00 0.00 0.00 0.00 0.00 0.00 0.00 0.00 0.00 0.00 0.00 0.00 0.00 0.00 0.00 0.00 0.00 0.00 0.00 0.00 0.00 0.00 0.00 0.00 0.00 0.00 0.00 0.00 0.00 0.00
0.01 0.00 0.01 0.03 0.04 0.03 0.11 0.10 0.06 0.04 0.03 0.01 0.00 0.00 0.00 0.00 0.00 0.00 0.00 0.00 0.00 0.00 0.00 0.00 0.00 0.00 0.00 0.00 0.00 0.00 0.00 0.00 0.00 0.00 0.00 0.00 0.00 0.00 0.00 0.00 0.00 0.00 0.00 0.00 0.00
0.01 0.00 0.02 0.02 0.05 0.10 0.11 0.11 0.11 0.05 0.01 0.00 0.00 0.00 0.00 0.00 0.00 0.00 0.00 0.00 0.00 0.00 0.00 0.00 0.00 0.00 0.00 0.00 0.00 0.00 0.00 0.00 0.00 0.00 0.00 0.00 0.00 0.00 0.00 0.00 0.00 0.00 0.00 0.00 0.00
0.00 0.01 0.02 0.04 0.08 0.12 0.05 0.03 0.01 0.00 0.00 0.00 0.00 0.00 0.00 0.00 0.00 0.00 0.00 0.00 0.00 0.00 0.00 0.00 0.00 0.00 0.00 0.00 0.00 0.00 0.00 0.00 0.00 0.00 0.00 0.00 0.00 0.00 0.00 0.00 0.00 0.00 0.00 0.00 0.00
0.00 0.02 0.02 0.06 0.13 0.08 0.03 0.00 0.00 0.00 0.00 0.00 0.00 0.00 0.00 0.00 0.00 0.00 0.00 0.00 0.00 0.00 0.00 0.00 0.00 0.00 0.00 0.00 0.00 0.00 0.00 0.00 0.00 0.00 0.00 0.00 0.00 0.00 0.00 0.00 0.00 0.00 0.00 0.00 0.00
0.00 0.00 0.02 0.07 0.10 0.05 0.04 0.00 0.00 0.00 0.00 0.00 0.00 0.00 0.00 0.00 0.00 0.00 0.00 0.00 0.00 0.00 0.00 0.00 0.00 0.00 0.00 0.00 0.00 0.00 0.00 0.00 0.00 0.00 0.00 0.00 0.00 0.00 0.00 0.00 0.00 0.00 0.00 0.00 0.00
0.00 0.00 0.01 0.03 0.06 0.03 0.01 0.00 0.00 0.00 0.00 0.00 0.00 0.00 0.00 0.00 0.00 0.00 0.00 0.00 0.00 0.00 0.00 0.00 0.00 0.00 0.00 0.00 0.00 0.00 0.00 0.00 0.00 0.00 0.00 0.00 0.00 0.00 0.00 0.00 0.00 0.00 0.00 0.00 0.00
0.00 0.00 0.01 0.04 0.04 0.03 0.02 0.01 0.00 0.00 0.00 0.00 0.00 0.00 0.00 0.00 0.00 0.00 0.00 0.00 0.00 0.00 0.00 0.00 0.00 0.00 0.00 0.00 0.00 0.00 0.00 0.00 0.00 0.00 0.00 0.00 0.00 0.00 0.00 0.00 0.00 0.00 0.00 0.00 0.00
0.00 0.00 0.01 0.03 0.02 0.02 0.03 0.01 0.00 0.00 0.00 0.00 0.00 0.00 0.00 0.00 0.00 0.00 0.00 0.00 0.00 0.00 0.00 0.00 0.00 0.00 0.00 0.00 0.00 0.00 0.00 0.00 0.00 0.00 0.00 0.00 0.00 0.00 0.00 0.00 0.00 0.00 0.00 0.00 0.00
0.00 0.00 0.00 0.02 0.01 0.02 0.01 0.00 0.00 0.00 0.00 0.00 0.00 0.00 0.00 0.00 0.00 0.00 0.00 0.00 0.00 0.00 0.00 0.00 0.00 0.00 0.00 0.00 0.00 0.00 0.00 0.00 0.00 0.00 0.00 0.00 0.00 0.00 0.00 0.00 0.00 0.00 0.00 0.00 0.00
0.00 0.00 0.01 0.01 0.01 0.01 0.00 0.00 0.00 0.00 0.00 0.00 0.00 0.00 0.00 0.00 0.00 0.00 0.00 0.00 0.00 0.00 0.00 0.00 0.00 0.00 0.00 0.00 0.00 0.00 0.00 0.00 0.00 0.00 0.00 0.00 0.00 0.00 0.00 0.00 0.00 0.00 0.00 0.00 0.00
0.00 0.00 0.01 0.01 0.00 0.01 0.00 0.00 0.00 0.00 0.00 0.00 0.00 0.00 0.00 0.00 0.00 0.00 0.00 0.00 0.00 0.00 0.00 0.00 0.00 0.00 0.00 0.00 0.00 0.00 0.00 0.00 0.00 0.00 0.00 0.00 0.00 0.00 0.00 0.00 0.00 0.00 0.00 0.00 0.00
0.00 0.00 0.00 0.00 0.00 0.00 0.00 0.00 0.00 0.00 0.00 0.00 0.00 0.00 0.00 0.00 0.00 0.00 0.00 0.00 0.00 0.00 0.00 0.00 0.00 0.00 0.00 0.00 0.00 0.00 0.00 0.00 0.00 0.00 0.00 0.00 0.00 0.00 0.00 0.00 0.00 0.00 0.00 0.00 0.00
0.00 0.00 0.00 0.00 0.00 0.00 0.00 0.00 0.00 0.00 0.00 0.00 0.00 0.00 0.00 0.00 0.00 0.00 0.00 0.00 0.00 0.00 0.00 0.00 0.00 0.00 0.00 0.00 0.00 0.00 0.00 0.00 0.00 0.00 0.00 0.00 0.00 0.00 0.00 0.00 0.00 0.00 0.00 0.00 0.00
0.00 0.00 0.00 0.00 0.00 0.00 0.00 0.00 0.00 0.00 0.00 0.00 0.00 0.00 0.00 0.00 0.00 0.00 0.00 0.00 0.00 0.00 0.00 0.00 0.00 0.00 0.00 0.00 0.00 0.00 0.00 0.00 0.00 0.00 0.00 0.00 0.00 0.00 0.00 0.00 0.00 0.00 0.00 0.00 0.00
0.00 0.00 0.00 0.00 0.00 0.00 0.00 0.00 0.00 0.00 0.00 0.00 0.00 0.00 0.00 0.00 0.00 0.00 0.00 0.00 0.00 0.00 0.00 0.00 0.00 0.00 0.00 0.00 0.00 0.00 0.00 0.00 0.00 0.00 0.00 0.00 0.00 0.00 0.00 0.00 0.00 0.00 0.00 0.00 0.00
0.00 0.00 0.00 0.00 0.00 0.00 0.00 0.00 0.00 0.00 0.00 0.00 0.00 0.00 0.00 0.00 0.00 0.00 0.00 0.00 0.00 0.00 0.00 0.00 0.00 0.00 0.00 0.00 0.00 0.00 0.00 0.00 0.00 0.00 0.00 0.00 0.00 0.00 0.00 0.00 0.00 0.00 0.00 0.00 0.00
0.00 0.00 0.00 0.00 0.00 0.00 0.00 0.00 0.00 0.00 0.00 0.00 0.00 0.00 0.00 0.00 0.00 0.00 0.00 0.00 0.00 0.00 0.00 0.00 0.00 0.00 0.00 0.00 0.00 0.00 0.00 0.00 0.00 0.00 0.00 0.00 0.00 0.00 0.00 0.00 0.00 0.00 0.00 0.00 0.00
0.00 0.00 0.00 0.00 0.00 0.00 0.00 0.00 0.00 0.00 0.00 0.00 0.00 0.00 0.00 0.00 0.00 0.00 0.00 0.00 0.00 0.00 0.00 0.00 0.00 0.00 0.00 0.00 0.00 0.00 0.00 0.00 0.00 0.00 0.00 0.00 0.00 0.00 0.00 0.00 0.00 0.00 0.00 0.00 0.00
MSLP
1005.45 1005.10 1005.70 1006.36 1007.02 1007.71 1008.60 1009.44 1009.99 1010.80 1011.46 1012.17 1012.50 1012.96 1013.27 1013.56 1014.12 1014.65 1014.45 1014.16 1013.86 1013.89 1014.00 1014.75 1014.82 1015.50 1015.73 1016.35 1016.56 1016.41 1016.75 1017.67 1017.27 1017.19 1016.41 1016.38 1016.67 1017.01 1017.11 1017.75 1018.13 1018.37 1018.73 1018.76 1019.48
1004.70 1004.37 1005.21 1005.87 1006.57 1007.23 1007.92 1009.03 1009.70 1010.34 1011.07 1011.74 1012.42 1012.60 1013.03 1013.55 1014.20 1014.01 1013.62 1013.39 1013.63 1013.91 1014.02 1014.42 1015.65 1015.81 1017.00 1017.08 1016.98 1016.55 1017.28 1017.14 1016.54 1016.33 1016.11 1016.18 1016.45 1016.84 1017.32 1017.92 1018.20 1018.66 1018.96 1019.03 1019.67
1004.22 1004.03 1004.56 1005.37 1006.19 1006.82 1007.51 1008.46 1009.26 1010.02 1010.85 1011.58 1012.35 1012.70 1012.74 1013.11 1013.83 1012.95 1012.97 1013.37 1013.59 1013.80 1014.38 1015.27 1015.62 1015.72 1017.17 1017.62 1017.30 1017.28 1017.15 1017.05 1016.52 1016.13 1016.05 1016.24 1016.57 1016.74 1017.18 1017.95 1017.62 1017.88 1018.95 1019.32 1019.85
1003.55 1003.37 1003.80 1004.91 1005.79 1006.37 1007.12 1007.89 1008.77 1009.08 1010.37 1011.17 1011.87 1012.53 1012.96 1013.34 1013.15 1011.96 1012.37 1013.02 1013.47 1014.07 1015.23 1015.66 1015.54 1016.27 1017.13 1017.71 1017.59 1017.45 1017.45 1017.63 1017.02 1016.68 1016.35 1016.31 1016.32 1016.76 1016.99 1016.61 1016.51 1017.01 1017.79 1018.80 1019.56
1002.86 1002.32 1003.56 1004.51 1005.23 1006.17 1006.65 1007.48 1008.41 1009.19 1010.07 1011.07 1011.71 1012.54 1013.17 1013.29 1012.42 1011.88 1012.36 1012.96 1013.82 1014.55 1015.34 1015.91 1016.19 1016.73 1017.01 1017.51 1017.71 1017.91 1017.75 1017.51 1017.37 1016.75 1016.31 1016.43 1016.36 1016.61 1016.91 1016.75 1016.85 1017.35 1018.34 1018.70 1019.25
1002.37 1002.02 1003.29 1004.04 1004.99 1005.89 1006.40 1007.09 1008.10 1008.96 1009.91 1010.56 1011.45 1012.23 1012.98 1012.95 1012.23 1012.08 1012.52 1013.20 1013.67 1014.95 1015.61 1016.45 1016.63 1016.57 1017.22 1017.85 1017.80 1018.21 1017.52 1017.59 1017.25 1016.93 1016.41 1016.61 1016.52 1016.70 1016.73 1017.23 1017.59 1017.82 1018.34 1018.97 1019.06
1002.16 1001.91 1003.20 1003.92 1004.72 1005.52 1006.13 1007.09 1007.73 1008.73 1009.76 1010.50 1011.61 1012.34 1012.70 1012.50 1012.10 1012.45 1012.95 1013.31 1014.07 1014.31 1015.68 1016.54 1017.08 1017.02 1017.85 1018.08 1018.25 1018.26 1018.31 1017.73 1017.33 1016.90 1016.46 1016.48 1016.87 1016.78 1016.93 1017.58 1018.02 1018.34 1018.52 1019.19 1019.51
1002.89 1002.91 1002.92 1003.84 1004.47 1005.31 1005.89 1006.91 1007.62 1008.42 1009.33 1010.47 1011.71 1012.56 1012.46 1012.20 1012.03 1012.80 1013.33 1013.89 1014.04 1014.27 1015.18 1016.47 1017.16 1017.54 1018.19 1018.49 1018.69 1018.82 1018.84 1018.19 1017.00 1017.20 1016.60 1016.73 1016.71 1016.55 1017.07 1017.84 1018.52 1018.80 1018.99 1019.30 1019.53
1002.91 1003.04 1003.09 1003.47 1004.21 1004.92 1005.75 1006.52 1007.33 1008.03 1009.20 1010.47 1012.16 1012.45 1012.61 1012.50 1012.72 1012.72 1013.12 1013.78 1014.28 1014.55 1015.54 1016.33 1017.24 1017.95 1018.59 1018.60 1019.42 1019.27 1018.89 1018.11 1017.63 1017.28 1017.15 1017.27 1016.92 1016.59 1017.08 1017.88 1018.66 1018.92 1019.24 1019.39 1019.60
1003.43 1003.12 1002.98 1003.16 1003.80 1004.68 1005.43 1006.45 1007.36 1008.01 1009.65 1011.17 1012.15 1013.44 1013.03 1012.20 1012.45 1012.87 1012.98 1013.53 1014.57 1015.22 1015.91 1016.35 1017.43 1017.93 1018.34 1018.25 1018.59 1018.75 1018.91 1018.41 1017.91 1017.39 1017.27 1017.59 1017.06 1016.93 1017.30 1017.87 1018.36 1018.86 1019.21 1019.47 1019.51
1002.86 1002.80 1002.95 1002.95 1003.70 1004.53 1005.45 1006.65 1007.80 1008.21 1008.94 1010.22 1010.80 1011.20 1011.35 1011.87 1012.11 1012.87 1013.34 1014.05 1014.75 1015.37 1016.02 1016.48 1017.21 1017.18 1017.53 1017.78 1017.96 1018.24 1018.08 1018.39 1017.83 1017.19 1017.67 1017.69 1017.45 1017.09 1017.60 1018.21 1018.73 1018.93 1018.99 1019.03 1019.15
1002.83 1002.53 1003.09 1002.89 1003.46 1004.10 1004.92 1005.43 1005.76 1006.55 1009.16 1009.96 1010.51 1010.79 1011.11 1011.18 1012.50 1013.52 1013.23 1014.11 1014.85 1015.58 1016.35 1016.90 1016.51 1017.07 1017.56 1017.83 1018.09 1018.03 1018.18 1018.51 1018.03 1017.67 1018.24 1018.08 1017.73 1017.21 1017.67 1017.74 1017.98 1018.08 1018.61 1018.50 1018.71
1003.08 1002.72 1003.15 1003.05 1003.41 1004.20 1004.45 1005.13 1005.40 1006.43 1008.76 1010.38 1010.63 1011.05 1010.60 1011.47 1012.25 1012.98 1013.39 1013.90 1014.84 1015.83 1016.35 1016.13 1016.22 1017.03 1017.36 1017.77 1018.15 1017.85 1018.35 1018.46 1018.29 1018.16 1018.47 1018.39 1017.92 1017.35 1017.22 1017.10 1017.40 1017.66 1017.80 1018.03 1017.92
1002.96 1002.76 1002.90 1002.96 1003.80 1003.50 1004.56 1005.08 1005.49 1005.97 1008.42 1010.78 1010.88 1009.90 1010.49 1011.27 1012.63 1012.74 1013.03 1013.94 1015.52 1015.98 1016.64 1016.71 1016.13 1016.35 1016.95 1017.13 1017.84 1017.98 1018.41 1018.41 1018.47 1018.72 1019.34 1018.82 1018.01 1017.15 1016.76 1016.64 1016.84 1016.87 1017.28 1017.14 1017.28
1003.52 1003.10 1002.69 1003.05 1002.27 1002.81 1003.91 1004.58 1005.36 1006.20 1008.50 1010.55 1010.87 1010.02 1010.66 1011.28 1011.99 1013.12 1012.92 1013.47 1014.79 1015.63 1016.72 1016.64 1016.52 1016.68 1016.46 1016.89 1017.71 1018.64 1018.52 1018.89 1019.15 1019.49 1020.22 1019.13 1019.32 1016.72 1016.43 1016.28 1016.48 1016.28 1016.42 1016.14 1016.04
1002.85 1002.63 1002.40 1002.48 1002.16 1002.80 1003.90 1004.53 1005.83 1007.27 1008.18 1009.46 1009.86 1010.29 1011.17 1011.50 1011.91 1012.95 1013.15 1013.49 1014.54 1015.71 1016.19 1016.48 1016.24 1016.07 1016.17 1016.91 1017.60 1018.03 1019.70 1020.06 1019.92 1020.19 1020.15 1019.15 1019.28 1016.64 1015.80 1015.29 1015.42 1015.24 1015.36 1015.35 1015.54
1003.10 1002.51 1002.84 1002.52 1001.55 1002.70 1003.59 1005.26 1007.15 1007.08 1007.81 1009.63 1009.39 1009.98 1010.70 1011.53 1012.22 1012.24 1013.13 1013.81 1014.05 1015.78 1016.40 1016.36 1016.31 1016.08 1015.98 1017.08 1017.67 1018.47 1020.37 1021.01 1020.72 1020.74 1019.69 1019.60 1019.19 1015.98 1014.59 1014.40 1014.37 1014.35 1014.33 1014.47 1014.94
1002.48 1002.70 1002.72 1002.89 1001.59 1002.65 1003.86 1006.14 1006.80 1005.88 1007.40 1007.97 1008.37 1010.00 1010.61 1011.35 1012.77 1012.86 1013.40 1013.83 1014.02 1014.34 1015.42 1015.87 1016.27 1015.79 1015.60 1015.81 1016.19 1018.00 1018.87 1018.47 1019.27 1019.96 1019.98 1019.84 1017.49 1014.84 1013.65 1013.35 1013.87 1014.01 1014.07 1014.41 1014.78
1002.34 1002.25 1002.44 1002.07 1002.48 1002.81 1004.47 1005.78 1003.06 1003.98 1005.74 1006.97 1008.39 1009.42 1010.71 1011.11 1011.83 1012.90 1012.70 1012.16 1012.99 1013.27 1013.91 1014.73 1015.37 1015.13 1015.40 1015.27 1015.58 1017.76 1017.64 1017.25 1018.22 1019.84 1020.17 1018.53 1016.39 1015.09 1013.63 1013.21 1013.19 1013.61 1014.13 1014.09 1014.08
1002.83 1002.34 1001.50 1000.94 1002.01 1002.83 1004.22 1002.94 1002.95 1003.60 1004.82 1006.10 1006.86 1007.74 1008.68 1009.81 1010.55 1011.48 1012.00 1011.18 1012.04 1012.36 1012.39 1013.06 1015.04 1015.14 1015.18 1015.25 1015.54 1015.20 1016.43 1017.60 1017.83 1018.73 1019.29 1017.54 1016.43 1014.37 1013.51 1012.65 1012.24 1012.54 1012.85 1012.89 1013.65
1002.52 1002.71 1002.20 1001.35 1002.32 1002.37 1002.07 1002.10 1002.47 1003.13 1003.27 1004.71 1005.66 1006.70 1007.30 1008.24 1009.27 1010.29 1010.68 1010.70 1011.45 1012.09 1012.45 1012.92 1013.70 1015.80 1015.51 1014.88 1015.02 1015.47 1015.21 1015.49 1016.06 1016.91 1017.03 1016.72 1014.92 1013.20 1012.57 1011.65 1011.67 1011.88 1013.03 1013.59 1014.17
1003.27 1003.44 1002.72 1001.84 1001.67 1001.55 1001.81 1002.03 1002.02 1002.76 1002.81 1003.55 1004.51 1005.42 1006.11 1007.54 1008.80 1010.00 1009.87 1009.43 1009.71 1010.65 1012.07 1012.35 1013.61 1015.45 1015.41 1014.89 1014.51 1014.36 1014.40 1014.79 1015.35 1016.04 1016.50 1015.89 1012.43 1011.84 1011.68 1011.48 1012.06 1012.44 1012.89 1013.24 1013.72
1003.42 1003.59 1003.27 1001.90 1002.11 1001.65 1001.95 1001.74 1001.57 1002.53 1002.69 1003.37 1004.18 1004.28 1005.32 1007.17 1008.95 1009.22 1009.10 1009.39 1009.24 1010.28 1010.43 1011.35 1012.53 1014.86 1015.85 1015.24 1014.47 1014.43 1014.11 1013.63 1014.11 1014.74 1014.98 1015.16 1009.85 1011.30 1011.29 1011.16 1011.38 1012.08 1012.69 1013.30 1014.08
1003.67 1003.81 1003.35 1003.04 1003.07 1002.37 1001.68 1001.79 1001.71 1002.14 1002.52 1002.68 1003.56 1004.11 1005.55 1007.22 1007.60 1008.58 1009.30 1009.15 1009.00 1009.35 1009.84 1010.56 1012.10 1012.95 1013.43 1012.85 1013.41 1014.44 1014.28 1013.98 1013.90 1014.58 1013.66 1012.51 1011.23 1011.31 1010.82 1010.78 1011.36 1011.86 1012.58 1013.44 1014.15
1003.76 1004.41 1003.88 1003.31 1003.04 1002.53 1001.88 1001.63 1001.60 1002.15 1002.43 1002.67 1003.91 1003.92 1004.57 1006.80 1007.92 1008.08 1008.51 1009.16 1009.36 1009.34 1010.22 1010.49 1011.83 1012.70 1012.72 1012.65 1012.58 1012.56 1012.89 1012.84 1013.08 1012.57 1012.60 1008.75 1010.68 1010.52 1010.42 1010.66 1011.08 1011.47 1012.50 1013.37 1013.95
1003.42 1003.90 1003.70 1003.43 1002.88 1002.76 1001.68 1001.08 1001.05 1002.14 1002.62 1002.82 1003.16 1004.05 1004.56 1005.35 1005.60 1006.70 1007.32 1008.14 1008.84 1010.33 1010.53 1010.56 1011.79 1012.68 1013.19 1012.95 1012.68 1012.46 1012.30 1012.20 1011.66 1011.12 1010.59 1009.93 1008.72 1009.41 1009.89 1010.28 1010.83 1011.32 1012.35 1012.92 1013.04
1003.46 1003.75 1003.38 1003.55 1003.00 1002.50 1001.47 1000.82 1000.55 1001.55 1003.33 1003.12 1003.66 1004.30 1004.77 1004.81 1005.05 1005.55 1006.20 1007.11 1008.03 1009.24 1010.73 1011.69 1012.26 1013.56 1013.94 1013.64 1013.35 1013.20 1011.42 1011.15 1010.85 1010.11 1009.44 1009.62 1007.98 1009.35 1009.89 1010.42 1010.55 1011.04 1011.57 1011.71 1011.69
Thickness
5552 5568 5574 5579 5585 5591 5595 5599 5605 5610 5615 5618 5626 5631 5637 5643 5643 5646 5650 5660 5670 5673 5675 5670 5673 5673 5674 5670 5672 5676 5663 5652 5668 5669 5690 5696 5697 5699 5703 5693 5697 5697 5693 5700 5695
5552 5566 5568 5574 5582 5587 5592 5593 5598 5604 5609 5613 5618 5627 5631 5634 5637 5643 5654 5661 5665 5667 5670 5667 5656 5662 5653 5655 5663 5665 5653 5663 5679 5682 5689 5692 5696 5694 5696 5691 5694 5694 5693 5697 5694
5545 5557 5563 5568 5574 5582 5589 5590 5594 5597 5601 5606 5608 5616 5625 5630 5629 5644 5653 5656 5660 5662 5664 5656 5656 5659 5647 5648 5653 5654 5661 5669 5679 5687 5689 5688 5691 5694 5690 5689 5696 5695 5691 5694 5693
5539 5553 5563 5562 5566 5577 5583 5588 5591 5598 5598 5602 5606 5611 5617 5620 5616 5646 5651 5652 5656 5656 5650 5647 5652 5646 5639 5640 5646 5653 5660 5658 5668 5673 5683 5683 5688 5690 5694 5702 5711 5708 5705 5700 5694
5537 5556 5556 5556 5562 5567 5577 5583 5587 5591 5595 5594 5599 5602 5607 5611 5622 5642 5645 5647 5647 5645 5643 5641 5639 5638 5636 5639 5641 5640 5651 5656 5658 5669 5682 5680 5687 5688 5690 5701 5704 5704 5699 5699 5698
5529 5548 5549 5552 5556 5559 5570 5577 5582 5586 5588 5592 5595 5597 5600 5600 5622 5633 5636 5639 5643 5636 5634 5633 5632 5637 5634 5632 5638 5637 5648 5652 5659 5663 5676 5677 5682 5687 5694 5692 5695 5698 5696 5695 5698
5527 5542 5543 5546 5551 5554 5562 5569 5579 5579 5581 5584 5584 5589 5594 5599 5616 5624 5625 5629 5629 5635 5628 5626 5624 5629 5625 5623 5631 5634 5636 5647 5653 5662 5669 5675 5673 5678 5687 5686 5689 5690 5693 5689 5691
5514 5524 5537 5539 5544 5548 5556 5563 5572 5575 5576 5576 5575 5577 5586 5597 5609 5615 5617 5617 5622 5628 5626 5619 5619 5619 5615 5618 5617 5620 5627 5625 5654 5649 5661 5664 5657 5683 5679 5679 5681 5683 5685 5686 5689
5504 5519 5527 5534 5538 5545 5551 5560 5571 5567 5567 5566 5561 5568 5574 5586 5594 5607 5612 5609 5613 5617 5617 5614 5615 5609 5608 5609 5602 5603 5617 5623 5630 5641 5647 5652 5660 5677 5673 5674 5675 5678 5679 5681 5683
5498 5513 5521 5529 5536 5540 5547 5552 5559 5556 5549 5547 5550 5546 5563 5584 5591 5598 5605 5607 5603 5605 5605 5605 5601 5600 5601 5609 5604 5602 5606 5615 5623 5637 5637 5639 5651 5668 5671 5671 5675 5674 5675 5677 5679
5496 5507 5518 5526 5531 5534 5536 5533 5535 5540 5545 5543 5557 5566 5573 5580 5584 5587 5592 5592 5594 5597 5592 5597 5594 5599 5607 5608 5613 5610 5612 5610 5625 5634 5629 5627 5639 5660 5663 5662 5664 5668 5671 5676 5679
5489 5505 5509 5522 5527 5531 5533 5540 5555 5555 5537 5542 5551 5560 5568 5577 5569 5569 5582 5581 5585 5585 5587 5584 5591 5601 5602 5603 5603 5607 5605 5604 5617 5621 5615 5621 5628 5645 5649 5657 5660 5669 5666 5674 5675
5480 5497 5502 5514 5521 5523 5533 5541 5549 5552 5534 5532 5538 5546 5561 5565 5564 5564 5574 5576 5580 5576 5581 5586 5597 5596 5595 5593 5594 5602 5594 5598 5607 5607 5609 5611 5616 5635 5646 5655 5660 5662 5667 5672 5677
5475 5488 5497 5507 5512 5524 5525 5534 5544 5548 5527 5506 5525 5545 5549 5552 5549 5561 5567 5568 5562 5567 5568 5575 5594 5592 5591 5592 5594 5590 5595 5597 5596 5596 5582 5603 5595 5623 5637 5651 5654 5662 5661 5672 5677
5462 5478 5492 5499 5519 5524 5528 5531 5535 5535 5504 5507 5510 5535 5537 5546 5551 5549 5559 5563 5554 5559 5557 5567 5580 5582 5590 5592 5590 5582 5586 5587 5586 5581 5574 5591 5581 5621 5629 5637 5646 5655 5664 5677 5686
5460 5476 5488 5498 5514 5520 5520 5526 5522 5505 5484 5500 5514 5523 5529 5538 5544 5537 5550 5557 5554 5548 5557 5560 5572 5580 5585 5584 5581 5584 5566 5567 5566 5569 5563 5593 5584 5608 5625 5639 5654 5667 5669 5679 5683
5449 5471 5480 5490 5516 5513 5514 5507 5484 5495 5506 5496 5516 5528 5536 5524 5530 5545 5543 5539 5544 5533 5537 5554 5564 5575 5578 5569 5572 5568 5549 5543 5553 5550 5580 5559 5571 5627 5641 5639 5654 5666 5674 5679 5676
5450 5463 5475 5484 5506 5505 5499 5485 5460 5517 5512 5515 5525 5527 5519 5525 5517 5527 5530 5534 5541 5553 5546 5550 5550 5561 5571 5577 5576 5562 5558 5565 5553 5555 5577 5560 5585 5612 5638 5645 5648 5654 5662 5666 5672
5444 5460 5470 5485 5491 5496 5486 5480 5526 5536 5518 5515 5519 5521 5503 5524 5521 5519 5535 5557 5550 5550 5554 5547 5550 5564 5566 5573 5574 5547 5554 5583 5559 5491 5539 5573 5597 5612 5631 5642 5649 5650 5652 5664 5671
5430 5453 5475 5489 5490 5489 5482 5517 5520 5527 5522 5528 5525 5533 5529 5533 5519 5523 5535 5558 5557 5555 5564 5561 5547 5555 5559 5563 5564 5570 5570 5554 5553 5554 5546 5577 5581 5605 5629 5639 5656 5657 5658 5672 5664
5428 5447 5460 5478 5480 5483 5494 5521 5522 5526 5537 5529 5519 5521 5541 5542 5531 5532 5542 5548 5553 5543 5555 5553 5554 5537 5546 5551 5553 5554 5559 5567 5572 5560 5560 5548 5593 5608 5625 5643 5648 5656 5647 5650 5647
5415 5435 5445 5467 5479 5479 5497 5506 5522 5519 5535 5532 5531 5533 5550 5546 5519 5540 5534 5563 5565 5557 5547 5553 5531 5512 5535 5551 5556 5561 5562 5571 5564 5563 5543 5555 5607 5617 5619 5630 5629 5633 5637 5638 5639
5409 5418 5432 5456 5465 5474 5498 5511 5520 5514 5525 5529 5532 5547 5544 5540 5529 5530 5540 5548 5555 5554 5554 5548 5534 5480 5519 5541 5547 5547 5556 5570 5565 5552 5557 5550 5623 5614 5616 5622 5626 5627 5628 5626 5624
5403 5413 5422 5431 5436 5467 5488 5505 5506 5518 5524 5537 5531 5537 5532 5524 5533 5525 5524 5540 5549 5556 5552 5554 5533 5534 5540 5562 5549 5547 5549 5555 5558 5541 5561 5566 5598 5609 5621 5622 5622 5621 5619 5614 5612
5394 5399 5406 5435 5441 5460 5487 5498 5489 5506 5516 5523 5523 5538 5538 5513 5516 5518 5522 5523 5529 5541 5540 5542 5531 5530 5545 5554 5555 5559 5557 5558 5558 5574 5560 5624 5589 5602 5610 5612 5612 5614 5606 5605 5603
5385 5394 5403 5420 5434 5451 5480 5494 5508 5493 5509 5519 5522 5524 5528 5516 5541 5519 5525 5524 5524 5516 5527 5530 5503 5527 5523 5539 5540 5546 5551 5555 5566 5577 5582 5593 5604 5609 5602 5603 5600 5603 5596 5598 5602
5380 5389 5403 5415 5432 5446 5466 5489 5516 5504 5491 5508 5517 5520 5524 5534 5538 5541 5540 5539 5534 5531 5523 5515 5494 5483 5498 5509 5517 5510 5543 5553 5563 5576 5590 5575 5615 5594 5593 5590 5595 5596 5592 5600 5607